date,time,Tx(GONG),Ty(GONG),Tx(HMI),Ty(HMI),lon(GONG),lat(GONG),elon(GONG),elat(GONG),lon(HMI),lat(HMI),elon(HMI),elat(HMI)
2020-01-01,00:00:00,-339.1199705703184,873.2309504746664,-601.7421588604337,-439.54488927951036,25.472431461945124,60.93009100510165,10.0,10.0,26.566874472265578,-28.69729635500113,10.0,10.0
2020-01-01,06:00:00,-334.65425213775603,876.9402685391898,-564.131811844185,-437.5812241102959,22.769748950342013,61.09983244388759,10.0,10.0,26.50391926032345,-28.775854200458607,10.0,10.0
2020-01-01,12:00:00,-326.2314448617399,876.1332422304761,-650.1388495462015,-645.8400906052215,19.650441793344385,61.62320746415435,10.0,10.0,0.6615755370807629,-42.436808464417524,10.0,10.0
2020-01-01,18:00:00,-323.1829640632495,882.0245501072301,-660.6185382031836,-620.457791066763,16.95394019209566,61.74681854579313,10.0,10.0,357.71342573853065,-40.817636507380435,10.0,10.0
2020-01-02,00:00:00,-1984.6739766439425,180.31410838502566,-652.4985554243904,-612.0345405370657,4.541272938060793,2.3317423749737243,10.0,10.0,357.2067659875017,-40.151889995884474,10.0,10.0
2020-01-02,06:00:00,-1984.262729384005,196.85773289921082,-636.4338294193149,-610.6589985958698,1.071625879445634,2.7153440782453457,10.0,10.0,356.0124840241246,-40.24611549890349,10.0,10.0
2020-01-02,12:00:00,-1993.648974299664,199.2622506118057,-625.867427613819,-603.9318471970282,357.58456740948554,2.752062922482797,10.0,10.0,355.32265603501594,-39.678956778958415,10.0,10.0
2020-01-02,18:00:00,-2001.4129860168325,201.64060261711586,-599.2463485663758,-603.6707164210602,354.09909805329954,2.791794454033788,10.0,10.0,354.8835681122658,-39.96203966027279,10.0,10.0
2020-01-03,00:00:00,-2008.080401980085,203.75622234230514,-575.3645205216017,-605.3774898471504,350.61504250611284,2.827951841619889,10.0,10.0,354.4309640064225,-40.1546787242274,10.0,10.0
2020-01-03,06:00:00,-547.6595502456183,-707.8704852492219,-547.3456925004721,-611.828874252833,344.04017337466837,-48.19298199158236,10.0,10.0,353.9021852134497,-40.72388825256369,10.0,10.0
2020-01-03,12:00:00,-542.9853933942504,-702.644475124398,-2002.093114834977,205.94916510270312,343.261315728468,-47.463641945531094,10.0,10.0,344.10075268826006,2.851323875506816,10.0,10.0
2020-01-03,18:00:00,-528.9156715653371,-698.83383396351,nan,nan,342.08915178203137,-47.337479114978045,10.0,10.0,306.2090223785683,48.074387628623285,10.0,10.0
2020-01-04,00:00:00,-509.5354902960825,-696.1996505707965,nan,nan,341.160238243562,-47.41046234095492,10.0,10.0,302.53810070897714,37.25496527772888,10.0,10.0
2020-01-04,06:00:00,-2030.757029353641,203.59389227578492,-840.2903392121661,511.79749690103677,333.2269591261174,2.7851674459415086,10.0,10.0,301.8386018072692,31.170429266164952,10.0,10.0
2020-01-04,12:00:00,-2031.9827834621535,200.775702958788,-857.1404381156899,479.5264665070197,329.7591645480432,2.7193966571922283,10.0,10.0,300.8977962627284,28.85104161853068,10.0,10.0
2020-01-04,18:00:00,-2043.605360785732,180.72136944577687,-862.0523023430724,457.70956987115534,326.32822635104196,2.2300112742561105,10.0,10.0,299.99083164190534,27.349377860882573,10.0,10.0
2020-01-05,00:00:00,-399.8722273958847,884.391510128921,-867.9346537450328,441.89048004169774,314.1378290051725,63.03694644930413,10.0,10.0,299.037785137227,26.088473739961252,10.0,10.0
2020-01-05,06:00:00,-417.72657157666987,878.7659871500833,-865.4832111443393,426.08469457453316,309.96528672733194,62.03001854030014,10.0,10.0,297.9801389278415,25.019986426104218,10.0,10.0
2020-01-05,12:00:00,-421.66765334550286,870.1108997881903,-861.2874765763991,414.1438157756383,306.76581246137715,61.54176945052644,10.0,10.0,297.09877824276543,24.130858647555257,10.0,10.0
2020-01-05,18:00:00,-432.293131373357,867.2468575687245,-858.900818486698,405.06447131267413,303.76609620523817,60.78456715744502,10.0,10.0,296.0167221080732,23.338522422025648,10.0,10.0
2020-01-06,00:00:00,-441.41440961952316,863.8376350996095,-849.5297908177598,393.0848818675872,301.3817002001516,59.95704537513985,10.0,10.0,294.756385989913,22.562243904356407,10.0,10.0
2020-01-06,06:00:00,-437.0601892417762,858.4137581351799,-847.3010342475028,388.2412043762283,299.50541801491227,59.70639252430044,10.0,10.0,293.64072376455624,21.93378490287882,10.0,10.0
2020-01-06,12:00:00,-442.6321042247582,857.3399461404699,-837.5159630083945,382.3071556502066,297.79185219704374,58.94078123769364,10.0,10.0,292.3613886926894,21.435782960953293,10.0,10.0
2020-01-06,18:00:00,-435.3109408805612,855.7614120541513,-826.3426731575746,379.10076995707465,296.3198891279927,58.81513179983625,10.0,10.0,291.2074015182058,21.06385802169849,10.0,10.0
2020-01-07,00:00:00,-426.6143692433834,856.7912756747148,-807.7325380654074,374.351340876872,294.9670169178884,58.786280165235475,10.0,10.0,289.99750833954533,20.777338201150684,10.0,10.0
2020-01-07,06:00:00,-417.53029350540606,859.8298852496181,-798.4949831517879,374.8086667336737,293.3769319097993,58.889078080840704,10.0,10.0,288.72449143047737,20.52518707402405,10.0,10.0
2020-01-07,12:00:00,-399.54603554122144,860.759401486881,-780.4627817817964,375.8725621843057,291.5409019419838,59.55904925261263,10.0,10.0,287.5438486545716,20.47920026506549,10.0,10.0
2020-01-07,18:00:00,-391.8411921844817,864.7762284327484,-764.0525136848447,380.488296020551,289.80431710523015,59.6272307680165,10.0,10.0,286.21009726676425,20.600533283893046,10.0,10.0
2020-01-08,00:00:00,-375.59954743157135,866.0653899665756,-740.322576764971,387.04712670190287,287.94865856790244,60.21117525721978,10.0,10.0,284.81419665800047,21.02761010885248,10.0,10.0
2020-01-08,06:00:00,-366.449711129535,875.6165210535157,-718.6639588752297,396.60098678683295,285.89129363212965,60.63570149488893,10.0,10.0,283.2451194041715,21.606208764556627,10.0,10.0
2020-01-08,12:00:00,-350.3217416689732,881.2408821100634,-707.3953694761731,412.99465144876496,283.3764051684044,61.60682848918397,10.0,10.0,281.32909675136585,22.34497910827005,10.0,10.0
2020-01-08,18:00:00,-344.47059327317396,889.7576391598413,-681.1339427405038,423.41657805746314,279.9583698166353,62.29567673767131,10.0,10.0,279.60856586194984,23.15637453127693,10.0,10.0
2020-01-09,00:00:00,-330.5065510910936,895.0424834267101,-662.2072446085513,445.0781920201216,276.7386691991896,63.39101397898473,10.0,10.0,277.7109619196254,24.398276943003086,10.0,10.0
2020-01-09,06:00:00,-317.5895333467052,900.2570224929425,-650.3955994637217,468.79428497630823,273.1246087354691,64.55851975990906,10.0,10.0,274.8280076274504,25.899460334616123,10.0,10.0
2020-01-09,12:00:00,-323.0844247948844,908.8700971130173,-638.4761699659283,487.9353325249045,267.90360339161845,65.03807339385368,10.0,10.0,272.16685006084384,27.06640733197973,10.0,10.0
2020-01-09,18:00:00,-316.81393518298864,905.6576547762088,-617.4532620322425,500.882173333767,263.16498238584273,65.84371212986655,10.0,10.0,270.0115390025689,28.049415964404933,10.0,10.0
2020-01-10,00:00:00,-329.59332487592474,908.1453933162927,-592.8688526893966,521.6187566180838,257.17631305674894,65.81595049600644,10.0,10.0,268.2459576906593,29.408960611051818,10.0,10.0
2020-01-10,06:00:00,-338.00942670390936,905.6697883925714,-547.7283809573855,562.3524938711145,251.51076519104743,65.82973555656223,10.0,10.0,267.7654333156329,32.0594111192067,10.0,10.0
2020-01-10,12:00:00,-347.34342240029946,903.641898464446,-531.9105662042275,633.7788878640778,246.31047156204042,65.64993187102671,10.0,10.0,262.63495140826404,37.41042171541083,10.0,10.0
2020-01-10,18:00:00,-355.88877251860686,902.0368125214203,-532.2857099731918,643.9724982011766,241.75534450407162,65.36769707934438,10.0,10.0,258.9380673920595,38.08395892711642,10.0,10.0
2020-01-11,00:00:00,-2133.6053768950514,177.07391611609017,-519.8650607676245,646.4146556994916,239.6395295353325,2.0396535629179953,10.0,10.0,256.71510399199474,38.25926678055652,10.0,10.0
2020-01-11,06:00:00,-2144.1006237450056,174.35409776588745,-478.95892786653707,670.1437550969823,236.21429565008515,1.9571157683674083,10.0,10.0,256.3072858342448,39.96200826202682,10.0,10.0
2020-01-11,12:00:00,-2135.7720097445417,191.80001065460263,-420.3083546205889,729.7928940068491,232.81051193788207,2.375785042664618,10.0,10.0,255.5532898343606,44.722655149821996,10.0,10.0
2020-01-11,18:00:00,-2141.451497454662,192.79705609521142,-413.4585608399939,787.075430727381,229.39884637357903,2.386712946266984,10.0,10.0,248.5753294112304,49.94741857267586,10.0,10.0
2020-01-12,00:00:00,-2146.3013289878145,193.80142805168347,-409.0131550373044,804.1317599524632,225.9934875323487,2.398956113325428,10.0,10.0,243.53468636576852,51.92508760713372,10.0,10.0
2020-01-12,06:00:00,-2150.4012210937217,194.78593852917209,-398.1193794305436,813.6911430097713,222.59500919044285,2.4116571555389896,10.0,10.0,239.6807814766899,53.35111025411477,10.0,10.0
2020-01-12,12:00:00,-2153.809923407156,195.5931704162125,-384.4678699735086,830.1479133650653,219.20360900514683,2.421036667686141,10.0,10.0,236.4768850405589,54.8497467352125,10.0,10.0
2020-01-12,18:00:00,-2156.5796965633053,196.05156012971528,-369.9732289642561,849.9805421283792,215.8195247087601,2.4230024931353267,10.0,10.0,232.7855119939079,56.76903775311426,10.0,10.0
2020-01-13,00:00:00,-2158.7261381191197,196.03408196205964,-354.28995819180267,869.5033181604988,212.44305144425067,2.414558663699934,10.0,10.0,228.15088349457756,59.18715438553282,10.0,10.0
2020-01-13,06:00:00,-2160.221141984919,195.4526076738732,-346.19338008970954,886.5256008859419,209.0745554907008,2.393680528370236,10.0,10.0,221.36253023528684,61.77289211336978,10.0,10.0
2020-01-13,12:00:00,-2160.935214138357,194.20448786522968,-356.60649734968314,891.9329978608231,205.7145868435421,2.358180949722624,10.0,10.0,210.513908082516,63.7722091492005,10.0,10.0
2020-01-13,18:00:00,-2160.6297975247726,192.2563894893714,-405.70057123992586,881.3683442469479,202.36362182918447,2.307675951241393,10.0,10.0,200.46808209312,62.201380469346105,10.0,10.0
2020-01-14,00:00:00,-2158.7948187938887,189.73506571520818,-445.9869414423592,867.2237064003735,199.02182072392532,2.2460252528690945,10.0,10.0,192.70223395646596,60.45652270540046,10.0,10.0
2020-01-14,06:00:00,-2168.9670487465337,169.97573066429928,-489.31248787930235,839.5783152317626,195.71959609832948,1.7583767103642922,10.0,10.0,185.79744529889416,57.94767224078628,10.0,10.0
2020-01-14,12:00:00,-2155.270109416917,172.91580141039802,-549.8510227904188,798.0889243098696,192.38650556312112,1.8434852309443683,10.0,10.0,181.39253143561328,53.62361574509164,10.0,10.0
2020-01-14,18:00:00,-465.7567487971392,845.9369781842482,-590.0808494202793,755.2155665319864,184.13479822771842,58.428824306264545,10.0,10.0,182.83549138660544,49.00398689686156,10.0,10.0
2020-01-15,00:00:00,-469.55136119644163,844.5594981887506,-587.4058623141608,752.665695156113,182.45872434706303,57.79141715391846,10.0,10.0,182.20401705385868,48.336129565045155,10.0,10.0
2020-01-15,06:00:00,-463.22119777952315,841.7447184257535,-576.2319884542376,755.7743873669439,180.83304271060416,57.63749810950775,10.0,10.0,180.44494125170425,48.577639611861706,10.0,10.0
2020-01-15,12:00:00,-463.992334254086,845.7509754801831,-567.2228077922482,759.804198426785,179.55602679177375,57.1644688302212,10.0,10.0,178.63100392332368,48.744347407402884,10.0,10.0
2020-01-15,18:00:00,-446.3148178213742,844.3250603483352,-555.6462855786085,765.2949878746913,178.3162112302584,57.54519643911197,10.0,10.0,177.07614253611442,48.998938765844784,10.0,10.0
2020-01-16,00:00:00,-438.8108812274877,849.7748002989975,-534.1500489120372,772.671984174935,176.85147016878102,57.58592111832207,10.0,10.0,175.4858395382544,49.85306025341279,10.0,10.0
2020-01-16,06:00:00,-422.79708957090037,852.8538001599838,-513.6895281721372,782.8611959194426,175.38386467151622,58.051744381666346,10.0,10.0,173.76584077208977,50.80782716123767,10.0,10.0
2020-01-16,12:00:00,-407.1814232179895,859.6014036899695,-490.79512345837435,793.3896284299337,173.97640229648098,58.577380037015025,10.0,10.0,172.45061905699237,51.76731080927106,10.0,10.0
2020-01-16,18:00:00,-382.9203390909825,866.941882710884,-468.1598360149656,809.7114492168722,172.52126764178678,59.70556420618208,10.0,10.0,171.02808895209097,52.9615676553516,10.0,10.0
2020-01-17,00:00:00,-361.49591087293817,880.3493664221835,-448.00867415103136,825.5352435333067,169.74800719083652,61.34892503220183,10.0,10.0,168.37942772808054,54.489832489091604,10.0,10.0
2020-01-17,06:00:00,-358.87443523271935,892.1177992943643,-435.2198634541128,832.9792372326853,164.63394245532191,62.49750626604931,10.0,10.0,164.85156597679912,55.63736746376469,10.0,10.0
2020-01-17,12:00:00,-363.7115534751209,892.9769664474591,-432.56304205418564,843.0315848450957,159.66547010844758,62.74867321036311,10.0,10.0,161.16499719345939,56.2865770315356,10.0,10.0
2020-01-17,18:00:00,-353.41542526753614,892.3980780411405,-422.54031809838483,844.5004778646362,155.70937603665766,63.61648615377,10.0,10.0,157.7971709180394,56.99705017566229,10.0,10.0
2020-01-18,00:00:00,-356.5949903121218,895.9393836443347,-414.31648773048073,851.290038535092,150.69452642002898,64.00314004061313,10.0,10.0,155.28661978825423,57.43758200599622,10.0,10.0
2020-01-18,06:00:00,-361.10509631200694,896.1538130896222,-402.33176035573706,855.1922948576132,146.0848380309264,64.08015057540446,10.0,10.0,152.12269028874297,58.28894277878135,10.0,10.0
2020-01-18,12:00:00,-362.6437682672404,897.8600999001018,-397.9728723056615,859.857103413163,141.89661520427256,64.26081127551049,10.0,10.0,149.22478403858406,58.56457328014965,10.0,10.0
2020-01-18,18:00:00,-366.1710898485034,899.9873772613362,-391.3617160685826,864.1695196041794,136.88044001759502,64.52259820913649,10.0,10.0,146.88456558962454,58.75883585831434,10.0,10.0
2020-01-19,00:00:00,-374.76088869059464,899.7309243264931,-380.9853532225825,864.3677596789016,131.9685438518481,64.36602246739827,10.0,10.0,144.46577550758332,59.11239717320127,10.0,10.0
2020-01-19,06:00:00,-386.80608042608947,897.6051017530368,-2138.013683278812,177.19592035755642,126.22901763076388,64.11940114151848,10.0,10.0,130.88839831418662,1.6272067611757401,10.0,10.0
2020-01-19,12:00:00,-395.9686185910832,886.9124241422237,-746.3499877052382,-603.3810855476523,120.71450123765014,63.746214649358556,10.0,10.0,107.44461765019574,-39.14045261008171,10.0,10.0
2020-01-19,18:00:00,-437.9668469920289,866.8431492921403,-787.2910491477232,-537.6047189194513,116.86487456368687,60.8894297161243,10.0,10.0,106.4841345214341,-34.5218037542352,10.0,10.0
2020-01-20,00:00:00,-2120.633252013242,154.5832163995058,-786.8212520533708,-525.472595340658,121.93272205190155,0.9933844540217529,10.0,10.0,105.74009431778828,-33.817283401863484,10.0,10.0
2020-01-20,06:00:00,-2109.941981896991,174.33886914671382,-782.0666504246183,-516.9041182630095,119.04228654855629,1.41211362849487,10.0,10.0,105.28384422456423,-33.35037279876295,10.0,10.0
2020-01-20,12:00:00,-755.0692187973764,-534.3313693282843,-765.1245427082757,-506.1068680087858,104.8184610544073,-34.813765653603284,10.0,10.0,104.93743102372663,-33.09226523073546,10.0,10.0
2020-01-20,18:00:00,-742.7395874646028,-525.6671224025255,-755.923113421537,-493.87259872523583,104.40890607489784,-34.4587887248755,10.0,10.0,104.9208102297775,-32.39671616873322,10.0,10.0
2020-01-21,00:00:00,-726.1777122688945,-517.9225885767884,-786.7123875471298,-413.83078923146485,103.98988217800928,-34.225584622462456,10.0,10.0,102.793082161063,-27.25999469896688,10.0,10.0
2020-01-21,06:00:00,-710.79046949232,-514.3102878072065,-843.4487660990562,-341.1243141939408,103.50379860934606,-34.096312425171035,10.0,10.0,96.40201155753188,-22.271658751641045,10.0,10.0
2020-01-21,12:00:00,-688.1475074712653,-508.7931628561271,-824.9046696475708,-327.1714961483125,103.11421393548666,-34.04512470038803,10.0,10.0,96.27857185184172,-21.706735706989043,10.0,10.0
2020-01-21,18:00:00,-665.9025264533702,-506.41060484035864,-803.337370893918,-323.3887320617247,102.65436531265965,-34.083142886930496,10.0,10.0,95.8021398891352,-21.734366743465973,10.0,10.0
2020-01-22,00:00:00,-643.9981184797361,-507.2466173292725,-789.7548737472389,-329.985021637933,102.13085110218915,-34.216213050289035,10.0,10.0,93.7819773835257,-22.27519859009325,10.0,10.0
2020-01-22,06:00:00,-614.6954203776551,-508.21780788718047,-771.5377334658988,-328.66885982484587,101.69130221950948,-34.5536482648564,10.0,10.0,93.13255734413215,-22.316016565830488,10.0,10.0
2020-01-22,12:00:00,-579.9221312946174,-510.22326721337885,-746.0274212989025,-326.0753552110123,101.2490587780101,-35.11610525133588,10.0,10.0,92.51325417383384,-22.40975154501361,10.0,10.0
2020-01-22,18:00:00,-546.0518660892267,-528.9794533023412,-719.5828882844652,-324.6110724577711,100.67030288371842,-36.458260244777456,10.0,10.0,92.09084750531923,-22.512212593764033,10.0,10.0
2020-01-23,00:00:00,-506.69656917685637,-648.2188896462391,-686.8439531952607,-323.8124537952465,93.88159143350836,-45.165510192621156,10.0,10.0,91.82330625136714,-22.72684184584929,10.0,10.0
2020-01-23,06:00:00,-511.9541228604503,-650.4225232771067,-661.3924678508192,-362.50884687046585,89.7668443544803,-45.31178240238762,10.0,10.0,89.78151059804405,-25.224317218694786,10.0,10.0
2020-01-23,12:00:00,-494.77401897544036,-650.1608486689379,-634.1664845631458,-386.87230011122114,88.61023672305784,-45.364457322547615,10.0,10.0,88.29783564301752,-26.868474153828675,10.0,10.0
2020-01-23,18:00:00,-473.9624550165609,-650.3858277041775,-597.519938782556,-457.88379354048067,87.5941778919835,-45.53546061463224,10.0,10.0,85.97020057743806,-31.482809602579565,10.0,10.0
2020-01-24,00:00:00,-452.5922381812706,-653.0413319687077,-562.497405848233,-462.11398703304,86.53054043418352,-45.82255790877167,10.0,10.0,85.38911944461455,-32.090341111107314,10.0,10.0
2020-01-24,06:00:00,-422.6401289782953,-654.6473860460441,-551.8604260953143,-504.36419164554786,85.93951076710083,-46.307408604457216,10.0,10.0,81.63627681871615,-34.80195489666845,10.0,10.0
2020-01-24,12:00:00,-391.05403735884477,-662.9478905131559,-583.255757154664,-493.4873780235466,85.39700259583663,-47.11895432646668,10.0,10.0,75.82566077117652,-33.928889211318086,10.0,10.0
2020-01-24,18:00:00,-358.4377034183126,-677.6530735613637,-553.8382282089442,-482.68820209831426,84.82302827307082,-48.26276652175694,10.0,10.0,75.26605477058467,-33.602327673555514,10.0,10.0
2020-01-25,00:00:00,-318.19483361509634,-692.9726058931548,-525.6666084360331,-482.32145623873015,84.61234363838287,-49.77330089482678,10.0,10.0,74.69031823235397,-33.68044317501603,10.0,10.0
2020-01-25,06:00:00,-279.21387150813825,-709.2915894821117,-536.9519527077209,-496.5845597545988,84.43878736849187,-51.258127827599296,10.0,10.0,70.03685607944125,-34.476666946730425,10.0,10.0
2020-01-25,12:00:00,-208.45401299418882,-778.6407769168663,-508.1213500786107,-491.76800553527886,84.58221800800307,-57.87067732450957,10.0,10.0,69.48852442649414,-34.33075469191856,10.0,10.0
2020-01-25,18:00:00,-187.21947168721817,-800.0176120309909,-471.23131186887616,-486.1872347666012,82.32001542568996,-60.101331213516254,10.0,10.0,69.23265648159139,-34.3245920614056,10.0,10.0
2020-01-26,00:00:00,-170.14639248955064,-807.7163188868612,-440.10302581964066,-483.63847410057673,80.62205100121021,-60.952226380117025,10.0,10.0,68.95141493157898,-34.11227299382766,10.0,10.0
2020-01-26,06:00:00,-153.23938414384608,-812.5633342113592,-401.46537281060586,-480.09445728993364,79.14375623861551,-61.526289162433535,10.0,10.0,68.76140128014008,-34.11134933980902,10.0,10.0
2020-01-26,12:00:00,-137.82251097541302,-816.6451960704278,-359.83843066543335,-477.3887800298143,77.68210321687451,-61.87002404900418,10.0,10.0,68.72388824595053,-34.14929680145171,10.0,10.0
2020-01-26,18:00:00,-109.6792197516188,-814.8632611004657,-315.30281321005896,-475.46521065460297,78.0236709145497,-61.83783932674225,10.0,10.0,68.82684300233646,-34.22671882836588,10.0,10.0
2020-01-27,00:00:00,-72.72707503312267,-808.632307116452,-273.4513343104627,-475.9272776229727,79.55473935163364,-61.33018033171054,10.0,10.0,68.890926923753,-34.14994803939075,10.0,10.0
2020-01-27,06:00:00,-34.23679560283199,-801.8036321284488,-224.1079954858869,-475.8596832186772,81.11214688231001,-60.512812259265786,10.0,10.0,69.195103873771,-34.29593014457054,10.0,10.0
2020-01-27,12:00:00,14.530881969796575,-786.5326596351855,-174.49151030322537,-477.1453972513863,83.557172800505,-59.23242235044872,10.0,10.0,69.512383804788,-34.4234678596287,10.0,10.0
2020-01-27,18:00:00,61.89847731820306,-709.595097902578,-119.51891426229851,-478.55599780001563,84.4863290691287,-51.99780516365831,10.0,10.0,70.11237985152596,-34.67083167089799,10.0,10.0
2020-01-28,00:00:00,103.68734565764456,-683.3635651740084,-9.391611579805614,-468.43091405329085,84.78713081109649,-49.9253729126999,10.0,10.0,74.64958432585671,-34.041406353127925,10.0,10.0
2020-01-28,06:00:00,149.04783509138247,-662.676399360505,48.598126944197844,-467.56461636709787,85.16932369408606,-48.07874494349765,10.0,10.0,75.43896031169946,-34.08126726732752,10.0,10.0
2020-01-28,12:00:00,198.33505658943375,-646.1119528470747,132.62938067479132,-528.6046063369215,85.90803559101124,-46.740749088585304,10.0,10.0,78.6426625896467,-38.249379492175315,10.0,10.0
2020-01-28,18:00:00,251.4379800271409,-637.2025540522371,282.926040042057,-445.2866012868296,87.13444631259918,-45.984294165922535,10.0,10.0,85.44420757470289,-32.437004143007776,10.0,10.0
2020-01-29,00:00:00,304.3495881932232,-636.3543709069163,337.67039107628534,-438.5269441943908,88.42795360482813,-45.591658359832365,10.0,10.0,86.11608473571671,-31.895097632353462,10.0,10.0
2020-01-29,06:00:00,355.8668715441481,-635.3741939202021,397.8347176233895,-433.97739269789724,90.04229942067442,-45.448699689081685,10.0,10.0,87.03555105570244,-31.252732195603727,10.0,10.0
2020-01-29,12:00:00,472.2721291319514,-626.0362490191444,494.0249525838591,-354.86227807887497,97.85130730648045,-44.17304596163243,10.0,10.0,89.40005373481077,-25.93127089933641,10.0,10.0
2020-01-29,18:00:00,597.6161644785286,-518.6152231552778,577.8458225118877,-319.00756876362425,101.02963395810501,-35.865899680591724,10.0,10.0,92.112877579502,-23.442435274741197,10.0,10.0
2020-01-30,00:00:00,640.7841956535291,-511.56729036617,623.674424908984,-317.9577498459525,101.74100322023315,-35.01699250546329,10.0,10.0,92.94390134899872,-23.22967225320382,10.0,10.0
2020-01-30,06:00:00,677.1833443216941,-512.2178454664938,670.2720387080471,-324.8530921175603,102.37052256488137,-34.668775120859536,10.0,10.0,94.039464783812,-23.3688022179052,10.0,10.0
2020-01-30,12:00:00,706.6739166703065,-514.2188565483008,722.9872929035434,-486.85427990951246,102.99113342779829,-34.51603376841629,10.0,10.0,104.13273090805464,-32.81706048197761,10.0,10.0
2020-01-30,18:00:00,727.9747890237609,-515.0845572380791,744.1900540334981,-495.9676352669262,103.57406186267995,-34.46067326705277,10.0,10.0,104.04923599328926,-33.047341150356196,10.0,10.0
2020-01-31,00:00:00,746.8441542208216,-519.0570532919396,766.3709508366853,-503.82186949764366,104.03515382277521,-34.49676339534724,10.0,10.0,104.22058652269077,-33.127870491100744,10.0,10.0
2020-01-31,06:00:00,762.8895236706018,-525.4429289649992,782.2394732422702,-510.82155716173247,104.34327199297562,-34.615248709565485,10.0,10.0,104.50604803212698,-33.281589701608766,10.0,10.0
2020-01-31,12:00:00,776.4047727672789,-534.1020462929284,789.2040346040263,-514.924916678997,104.57848810225109,-34.81695935268126,10.0,10.0,104.7761162233114,-33.472264316531515,10.0,10.0
2020-01-31,18:00:00,786.7910245056772,-544.5615261094171,803.3632656581859,-523.193014750087,104.75245739213636,-35.1039895648071,10.0,10.0,104.9851902245341,-33.532123414637645,10.0,10.0
2020-02-01,00:00:00,789.8730757297933,-546.7644543918657,806.7246719906859,-527.4589696462,104.81473255733525,-35.13688958370645,10.0,10.0,105.15747222501614,-33.641267858209915,10.0,10.0
2020-02-01,06:00:00,793.0157673875453,-559.0106620265561,815.3348815888949,-536.750370116774,104.7365464240204,-35.56273930043793,10.0,10.0,105.34869615206732,-33.72931252275764,10.0,10.0